Flag for Switzerland Weather past 2 weeks in Spiez, Bern, Switzerland

Now
50 °F

Cool.


Feels Like: 50 °F
Forecast: 31 / 51 °F
Wind: 1 mph from Northeast

Location: Interlaken


UV Index: 0 (Low)

Visibility: N/A


Pressure: 29.90 "Hg

Humidity: 62%

Dew point: 37 °F

Location of SpiezLocation

Historic Weather in Spiez

°F

Spiez temperature yesterday

Maximum temperature yesterday: 61 °F (at 6:00 PM)
Minimum temperature yesterday: 34 °F (at 7:00 AM)
Average temperature yesterday: 44 °F

Past Weeks' High & Low Weather Summary

 TemperatureHumidityPressure
High70 °F (Apr 11, 5:00 PM)100% (Apr 6, 7:00 AM)30.32 "Hg (Apr 6, 7:00 AM)
Low32 °F (Apr 16, 5:00 AM)29% (Apr 13, 6:00 PM)29.63 "Hg (Apr 4, 4:00 PM)
Average53 °F62%30.05 "Hg
* Reported Apr 3 11:00 AM — Apr 18 11:00 AM, Spiez, Weather by CustomWeather, © 2014

Note: Actual official high and low records may vary slightly from our data, if they occured in-between our weather recording intervals... More about our weather records

Advertising

Historic Weather Conditions — Data for Previous 24 hours

 ConditionsComfort  
Time TempWeatherWind HumidityBarometerVisibility
11:00 AM
Apr 18
50 °FCool.1 mph62%29.90 "HgN/A
10:00 AM47 °FCool.1 mph71%29.92 "HgN/A
9:00 AM45 °FCool.No wind72%29.96 "HgN/A
8:00 AM42 °FQuite cool.1 mph76%29.98 "HgN/A
7:00 AM41 °FQuite cool.1 mph69%29.98 "HgN/A
6:00 AM40 °FQuite cool.No wind72%29.99 "HgN/A
5:00 AM39 °FChilly.1 mph75%30.01 "HgN/A
4:00 AM39 °FChilly.2 mph75%30.02 "HgN/A
3:00 AM40 °FQuite cool.1 mph73%30.03 "HgN/A
2:00 AM42 °FQuite cool.No wind72%30.04 "HgN/A
6:00 PM
Apr 17
61 °FRefreshingly cool.9 mph36%29.98 "HgN/A
4:00 PM60 °FRefreshingly cool.8 mph33%30.01 "HgN/A
3:00 PM59 °FRefreshingly cool.6 mph37%30.03 "HgN/A
2:00 PM56 °FRefreshingly cool.8 mph39%30.07 "HgN/A
1:00 PM53 °FCool.12 mph40%30.10 "HgN/A
12:00 PM50 °FCool.7 mph49%30.15 "HgN/A
Weather by CustomWeather, © 2014

See weather overview